sat.trackr.live / text

‹ back to catalog

STARLINK-31336

NORAD 58944 · 2024-027P

PAYLOAD ACTIVE UNKNOWN

§ Identity

Operator
Country
US
Launch date
2024-02-10
Launch site
AFWTR
Launch vehicle
Mass (kg)
RCS (m²)

Purposes: comms

External: N2YO · Heavens-Above · Gunter

§ Orbital elements

Epoch: 2026-09-20T07:39:20.475072Z

Period
93.85 min
Inclination
53.1591°
Eccentricity
0.0000754
Mean motion
15.34393619 rev/d
Perigee alt
462.2 km
Apogee alt
463.2 km
Semi-major
6,840.9 km
B*
8.6482e-5
RAAN
124.4032°
Arg perigee
86.8913°
Mean anomaly
273.2176°
Rev number
14,713

§ Raw data

STARLINK-313361 58944U 24027P   26263.31898698  .00002546  00000+0  86482-4 0  99942 58944  53.1591 124.4032 0000754  86.8913 273.2176 15.34393619147131

JSON: /api/v1/satellites/58944 · /tle

For live sub-satellite position, see the globe view (requires WebGL).

§ Visibility from observer

Set your observer location to see the next 7 days of passes ≥ 10°. The values pass through the URL so the page stays shareable.

No JS? Fill the form by hand. The geolocation button needs JavaScript.